Flag for Portugal Weather past 2 weeks in Funchal, Madeira, Portugal

Now
75 °F

Broken clouds.


Feels Like: 77 °F
Forecast: 70 / 77 °F
Wind: 5 mph from Southeast

Location: Aeroporto Da Madeira

Current Time: Jul 30, 2014 at 2:52:06 PM

Latest Report: Jul 30, 2014 at 2:00 PM


Visibility: N/A

Pressure: 30.04 "Hg

Humidity: 65%

Dew point: 63 °F

Location of FunchalLocation

Historic Weather in Funchal — Graph

°F

Funchal temperature yesterday

Maximum temperature yesterday: 77 °F (at 1:00 PM)
Minimum temperature yesterday: 70 °F (at 1:30 AM)
Average temperature yesterday: 72 °F

Past Weeks' High & Low Weather Summary

 TemperatureHumidityPressure
High81 °F (Jul 18, 2:30 PM)88% (Jul 22, 6:00 AM)30.24 "Hg (Jul 22, 6:00 AM)
Low64 °F (Jul 18, 4:30 AM)47% (Jul 28, 11:30 AM)30.01 "Hg (Jul 30, 4:00 AM)
Average71 °F67%30.12 "Hg
* Reported Jul 15 1:00 PM — Jul 30 1:30 PM, Funchal, Weather by CustomWeather, © 2014

Note: Actual official high and low records may vary slightly from our data, if they occured in-between our weather recording intervals... More about our weather records

Advertising

Funchal weather history for previous 24 hours

 ConditionsComfort  
Time TempWeatherWind HumidityBarometerVisibility
1:30 PM
Jul 30
75 °FBroken clouds.6 mph61%30.04 "HgN/A
1:00 PM75 °FBroken clouds.7 mph57%30.04 "HgN/A
12:30 PM75 °FScattered clouds.9 mph54%30.04 "HgN/A
12:00 PM75 °FScattered clouds.15 mph54%30.04 "HgN/A
11:30 AM75 °FScattered clouds.14 mph54%30.04 "HgN/A
11:00 AM73 °FScattered clouds.12 mph57%30.04 "HgN/A
10:30 AM73 °FScattered clouds.10 mph57%30.04 "HgN/A
10:00 AM70 °FBroken clouds.7 mph64%30.04 "HgN/A
9:30 AM70 °FScattered clouds.6 mph60%30.04 "HgN/A
9:00 AM70 °FPartly sunny.9 mph60%30.04 "HgN/A
8:30 AM70 °FPartly sunny.10 mph60%30.01 "HgN/A
8:00 AM70 °FPassing clouds.12 mph60%30.01 "HgN/A
7:30 AM70 °FPassing clouds.8 mph57%30.01 "HgN/A
7:00 AM70 °FPassing clouds.9 mph57%30.01 "HgN/A
6:30 AM68 °FPassing clouds.12 mph64%30.01 "HgN/A
6:00 AM68 °FPassing clouds.12 mph64%30.01 "HgN/A
5:30 AM68 °FPassing clouds.13 mph64%30.01 "HgN/A
5:00 AM68 °FPassing clouds.9 mph69%30.01 "HgN/A
4:30 AM68 °FPassing clouds.12 mph69%30.01 "HgN/A
4:00 AM70 °FPassing clouds.9 mph64%30.01 "HgN/A
3:30 AM70 °FPassing clouds.7 mph64%30.04 "HgN/A
3:00 AM70 °FPassing clouds.7 mph64%30.04 "HgN/A
2:30 AM70 °FPassing clouds.5 mph64%30.04 "HgN/A
2:00 AM70 °FPassing clouds.7 mph69%30.04 "HgN/A
1:30 AM70 °FPassing clouds.6 mph69%30.04 "HgN/A
1:00 AM70 °FPassing clouds.7 mph64%30.07 "HgN/A
12:30 AM70 °FPassing clouds.6 mph64%30.07 "HgN/A
12:00 AM70 °FPassing clouds.7 mph69%30.07 "HgN/A
11:30 PM
Jul 29
70 °FPassing clouds.9 mph69%30.07 "HgN/A
11:00 PM70 °FPassing clouds.6 mph69%30.07 "HgN/A
10:30 PM70 °FPassing clouds.7 mph69%30.07 "HgN/A
10:00 PM70 °FScattered clouds.6 mph69%30.04 "HgN/A
9:30 PM70 °FScattered clouds.7 mph69%30.04 "HgN/A
9:00 PM70 °FScattered clouds.6 mph69%30.04 "HgN/A
8:30 PM72 °FScattered clouds.8 mph69%30.04 "HgN/A
8:00 PM72 °FScattered clouds.8 mph69%30.04 "HgN/A
7:30 PM72 °FBroken clouds.8 mph69%30.04 "HgN/A
7:00 PM72 °FBroken clouds.8 mph69%30.04 "HgN/A
6:30 PM72 °FBroken clouds.8 mph73%30.07 "HgN/A
6:00 PM72 °FBroken clouds.8 mph73%30.07 "HgN/A
5:30 PM73 °FBroken clouds.12 mph69%30.07 "HgN/A
5:00 PM73 °FBroken clouds.10 mph69%30.07 "HgN/A
4:30 PM73 °FBroken clouds.8 mph69%30.07 "HgN/A
4:00 PM75 °FBroken clouds.13 mph65%30.07 "HgN/A
3:30 PM77 °FScattered clouds.14 mph61%30.07 "HgN/A
3:00 PM77 °FScattered clouds.13 mph57%30.07 "HgN/A
2:30 PM75 °FBroken clouds.12 mph61%30.07 "HgN/A
2:00 PM77 °FScattered clouds.8 mph51%30.09 "HgN/A
Weather by CustomWeather, © 2014

See weather overviewHow to use our weather pages